Wind_Speed
20 18 17 20 20 19 18 18 17 16 15 15 14 13 13 12 11 11 11 12 13 15 16 18 19 18 17 16 15 16 16 17 17 17 18 17 17 17 16 15 14 13 12 12 11 10 9 8 9 8 8 7 7 8 7 6 7 8 9 13 15 14 13 14 17 17 18 18 17 17 18 18 18 18 18 17 16 16 16 16 16 17 17 17 17
23 20 19 20 20 19 19 19 17 16 15 15 15 14 13 12 12 11 11 12 13 14 16 17 17 17 17 16 16 17 17 17 17 17 17 16 16 15 14 14 13 11 10 9 9 8 8 7 8 8 8 7 7 8 7 7 7 8 9 13 14 14 13 15 17 17 18 18 17 17 17 17 17 17 16 16 15 14 14 14 15 16 16 15 15
23 21 20 20 20 18 19 18 17 16 15 15 15 15 14 13 12 11 11 12 12 14 15 16 16 17 17 16 16 17 17 17 17 16 15 15 14 14 13 13 12 11 9 8 7 7 6 6 7 7 8 8 8 8 8 8 7 8 9 13 15 14 14 15 17 17 17 16 16 16 16 16 16 15 15 15 14 13 12 12 13 14 14 14 14
22 21 20 20 19 18 19 18 17 15 15 15 15 15 14 13 12 10 11 11 12 13 15 15 16 16 16 15 16 17 16 16 17 16 15 14 13 13 12 12 11 11 10 9 8 7 7 7 7 8 9 9 9 8 8 9 8 8 9 13 15 15 15 14 16 17 16 16 15 15 15 15 14 14 13 13 12 11 11 11 11 12 12 12 13
21 21 20 20 20 18 18 17 16 16 16 16 16 16 15 13 12 11 11 11 12 14 15 15 16 16 16 15 15 16 16 16 16 16 15 14 13 13 12 11 11 10 9 8 8 7 7 8 9 10 10 10 10 9 9 10 9 9 10 13 15 15 14 14 16 16 16 16 15 15 14 14 13 13 12 11 11 10 9 9 10 10 10 11 11
21 21 20 20 20 19 18 17 16 16 16 16 17 16 15 14 12 12 12 12 12 14 14 15 16 16 16 16 15 15 16 16 16 15 14 13 12 11 11 11 10 9 9 8 7 6 7 8 10 11 11 11 11 10 10 11 10 10 10 13 15 15 14 15 17 15 15 16 15 15 14 13 12 11 10 9 9 8 8 8 8 9 9 10 10
21 21 19 19 19 18 17 17 16 16 16 17 17 17 16 15 13 14 14 13 13 14 14 15 15 15 16 16 16 15 16 15 14 13 12 11 10 10 11 11 10 9 9 7 6 6 6 7 10 11 11 12 12 12 11 11 11 12 11 13 14 15 15 16 17 16 15 16 16 15 14 13 12 11 9 8 7 7 7 6 7 7 8 8 9
19 20 19 18 17 18 18 17 16 16 16 17 18 17 16 15 15 15 15 14 14 14 15 15 15 15 15 15 15 14 14 13 11 11 10 10 9 9 9 9 9 8 8 7 6 6 6 6 9 11 12 13 13 13 13 13 13 13 13 13 14 15 16 17 18 16 15 15 15 15 14 13 12 11 9 7 6 6 5 5 6 6 6 7 8
19 18 19 19 18 18 18 17 17 16 16 17 18 18 17 16 15 16 15 14 13 13 14 14 14 14 14 14 14 13 12 12 11 11 10 9 8 7 7 7 7 7 7 7 7 6 6 6 7 10 13 13 14 14 14 15 15 14 13 14 15 16 18 18 17 17 15 14 15 15 14 13 12 11 9 8 6 5 4 4 4 5 5 6 6
18 18 18 19 19 18 18 18 18 16 16 17 18 18 17 16 16 16 15 14 13 13 13 13 13 13 14 13 12 12 11 11 11 11 9 8 8 7 6 6 6 6 6 6 7 5 6 7 7 8 13 15 14 15 16 17 17 15 14 14 16 18 19 18 17 17 16 15 15 15 14 14 13 12 11 9 7 5 4 3 3 3 3 4 5
18 17 17 18 18 17 17 18 19 17 16 16 17 18 17 16 16 16 15 14 14 13 12 12 12 12 12 12 12 11 11 11 11 10 8 7 8 8 7 7 6 6 5 5 6 5 5 6 6 6 10 14 15 15 17 18 17 16 15 15 16 17 18 17 17 17 16 16 15 14 14 14 13 13 12 10 8 6 5 4 3 2 2 3 5
18 17 16 17 18 17 17 17 18 18 16 16 17 18 17 17 17 16 15 14 14 13 13 12 11 11 10 10 10 10 11 11 11 10 8 8 8 9 8 7 7 6 5 6 5 5 5 6 6 6 8 13 14 16 16 17 17 17 16 16 16 16 15 15 16 16 16 16 15 15 14 14 14 13 12 11 10 8 7 5 3 2 1 2 4
18 17 16 16 17 17 17 16 17 17 17 16 17 18 18 17 17 16 15 14 14 13 12 12 11 10 9 8 8 8 9 10 10 10 8 8 8 9 8 7 6 6 6 6 5 5 6 6 7 7 8 11 14 15 16 17 17 16 16 15 15 15 14 13 13 14 15 16 16 16 15 14 14 13 13 12 11 9 8 6 5 3 2 1 3
18 16 15 15 16 17 17 16 16 17 17 17 17 17 18 18 17 16 15 14 13 13 12 12 11 10 9 8 7 7 8 8 9 9 8 8 8 8 8 8 6 6 6 6 6 5 5 6 8 9 9 10 12 14 15 16 16 15 15 14 14 13 13 12 11 12 13 15 15 16 15 14 14 14 13 12 11 10 9 7 6 4 3 1 2
17 16 15 15 15 16 16 15 15 15 16 16 17 17 17 17 17 16 15 14 13 12 11 11 11 10 9 7 7 7 7 7 7 7 7 8 8 8 8 8 7 6 6 5 6 6 6 6 7 9 10 10 11 12 12 13 14 13 13 13 13 12 12 12 10 9 10 12 13 14 14 14 13 13 13 13 12 11 9 8 7 5 3 2 1
17 16 15 15 14 14 15 15 14 15 15 16 16 17 17 17 17 17 16 15 13 12 11 11 11 10 9 8 7 7 8 8 7 7 8 8 8 8 8 8 7 6 6 5 5 6 6 7 7 8 10 11 11 11 11 11 11 11 11 11 11 11 11 11 10 9 9 8 10 11 11 12 13 12 12 12 11 10 9 8 7 5 4 2 1
17 16 15 15 14 14 14 14 14 14 15 15 15 15 15 15 16 16 16 15 14 12 11 11 10 10 9 8 7 7 8 8 8 8 9 9 8 8 8 7 6 6 6 5 6 6 7 8 8 9 10 10 10 10 10 10 10 9 9 10 11 11 11 11 10 9 8 7 7 8 8 9 11 11 10 9 8 8 7 7 6 5 4 2 1
17 16 15 14 15 13 14 14 14 14 14 14 13 13 13 13 14 15 15 14 14 13 12 11 10 9 9 8 7 8 8 8 8 9 9 9 8 8 8 7 5 5 5 6 6 6 8 9 10 11 12 12 11 10 10 10 10 9 8 8 9 11 11 11 10 10 9 7 6 5 6 7 8 9 8 6 5 5 4 4 4 3 2 1 1
18 17 16 15 15 14 14 14 14 14 14 13 13 12 12 12 12 13 14 14 14 13 12 11 10 10 10 9 8 8 8 8 9 10 10 9 8 8 8 7 5 4 5 6 6 6 7 10 12 13 14 14 13 12 11 11 10 9 7 7 8 9 10 10 10 10 9 8 7 6 5 6 7 7 6 5 5 4 3 3 3 3 2 1 1
19 18 17 16 15 14 14 14 13 13 13 12 11 11 11 11 11 12 13 13 13 12 12 11 11 10 10 10 9 9 9 9 10 10 10 9 8 8 7 6 5 5 6 7 6 5 6 9 12 13 14 15 15 15 14 13 12 10 8 7 7 7 8 9 10 10 9 9 8 7 6 6 6 6 6 5 5 5 4 3 3 3 2 1 1
18 19 18 16 15 13 13 13 13 12 12 11 11 11 10 10 10 10 11 11 12 12 11 11 11 12 11 11 10 9 10 10 10 9 10 10 9 8 7 6 5 5 6 7 6 5 5 7 11 13 14 15 15 16 16 15 14 13 10 8 7 6 7 8 9 9 9 8 8 7 6 6 6 6 5 6 5 5 5 4 3 3 2 1 1
16 19 19 17 15 13 13 13 13 12 11 11 10 10 10 10 9 9 9 10 11 10 11 11 11 11 12 11 10 10 11 11 9 9 9 11 11 9 8 7 6 6 7 7 6 5 5 7 10 13 13 14 15 15 16 16 16 14 12 10 8 6 6 7 8 9 8 8 7 7 6 6 6 6 5 5 6 5 5 4 3 2 2 1 1
15 19 20 18 16 13 13 12 12 11 11 10 9 9 9 9 9 9 9 9 10 10 10 10 10 11 11 11 10 10 10 10 9 8 9 11 11 9 8 8 7 7 7 7 6 6 6 6 9 13 14 14 15 14 16 17 17 16 13 11 9 7 6 8 8 8 8 8 7 6 6 6 6 6 5 5 5 5 5 4 3 2 2 2 1
17 20 20 19 17 14 13 12 11 10 10 10 9 9 9 9 9 9 9 10 10 10 10 10 10 10 10 11 10 10 10 10 9 9 9 9 10 9 9 9 7 6 7 8 7 6 7 7 8 13 16 15 15 15 15 17 18 17 14 12 11 9 7 8 9 8 8 7 6 6 5 5 5 5 5 5 5 5 5 4 4 3 3 3 2
19 20 21 20 18 15 14 13 11 10 10 10 11 10 10 10 10 10 10 11 10 10 10 10 10 9 10 11 10 10 10 10 10 10 8 8 9 10 10 9 8 7 7 8 8 7 7 7 7 10 15 16 15 15 15 17 18 17 16 13 12 10 8 9 10 9 9 7 6 5 5 5 4 5 5 4 4 5 5 5 4 5 5 5 4
18 20 21 20 19 16 14 13 12 11 12 12 12 11 10 10 10 10 10 10 10 10 10 9 9 9 10 10 10 10 10 10 10 10 9 9 9 10 10 10 9 8 9 9 9 8 7 7 7 8 13 16 16 16 16 17 19 18 17 14 12 11 9 10 11 9 9 8 7 5 5 4 3 4 4 4 4 4 4 4 4 5 5 5 5
17 18 19 19 18 17 15 15 14 13 14 14 13 12 12 11 11 11 11 12 11 10 10 10 9 9 9 9 9 10 10 10 10 10 11 10 11 12 11 10 10 10 10 10 10 9 8 8 8 8 11 15 16 16 16 16 19 19 18 15 13 12 10 11 11 10 9 8 7 6 5 3 2 2 3 3 3 3 3 3 3 3 3 4 4
15 15 16 17 16 16 16 16 15 14 14 14 13 12 12 13 13 13 14 14 13 13 14 11 10 10 9 9 9 10 10 10 11 11 12 13 13 13 11 10 11 11 11 11 11 10 9 9 8 8 11 16 17 17 17 16 17 19 19 17 14 13 12 12 11 10 9 8 7 6 5 3 2 2 2 2 2 1 1 1 1 1 1 2 3
15 14 13 13 12 13 14 13 13 13 13 13 12 11 10 11 12 13 14 13 12 14 16 13 11 11 10 9 9 9 10 10 10 11 13 15 15 13 11 10 10 12 14 13 12 11 10 9 8 8 11 17 18 17 17 16 16 18 20 18 16 15 13 12 11 10 9 8 7 6 5 3 2 1 1 1 1 1 1 1 1 1 1 1 1
14 12 11 10 9 10 10 10 11 11 11 11 10 10 9 9 10 11 11 11 9 11 13 11 12 13 11 10 10 9 9 9 10 12 14 15 13 11 10 9 9 12 15 15 14 13 11 10 9 8 11 17 18 17 16 15 15 16 18 19 18 17 15 13 12 11 10 8 6 5 4 3 2 1 1 1 1 2 2 2 2 2 2 2 2
14 12 10 9 8 8 9 9 9 9 9 9 9 10 10 11 11 11 10 10 9 10 10 10 12 13 12 12 11 11 10 10 11 12 13 13 11 11 11 9 8 11 14 15 15 14 13 12 10 9 12 16 18 17 15 14 13 14 16 18 20 19 17 15 13 13 11 8 7 5 5 4 3 2 1 0 1 1 2 2 2 3 3 3 3
14 12 10 8 8 8 8 8 8 9 8 8 9 9 10 10 11 12 11 11 10 10 10 10 12 13 13 13 12 13 12 11 13 12 13 14 12 11 10 9 9 10 13 15 16 16 15 14 11 9 12 16 17 17 16 13 13 13 15 17 20 21 20 18 15 14 13 10 8 7 6 6 5 4 2 1 1 2 2 3 3 3 4 4 4
13 11 10 8 7 7 7 8 8 8 8 8 8 8 8 8 8 9 9 9 8 9 9 10 11 12 14 15 14 15 14 13 13 12 12 12 12 11 9 8 8 9 11 13 16 17 16 15 12 10 12 16 17 17 16 14 12 12 14 16 19 21 21 20 18 16 14 12 10 8 7 7 6 5 3 2 1 2 3 3 4 5 5 6 5
11 9 8 7 6 6 6 7 7 7 7 7 7 7 6 6 5 5 6 6 6 6 6 7 9 10 13 13 13 14 14 14 13 10 10 9 9 9 8 8 8 8 9 11 14 16 17 16 14 12 14 17 17 17 17 16 14 12 13 14 17 21 23 22 21 20 18 15 12 10 9 8 7 6 4 3 1 1 2 3 4 5 6 6 6
10 7 6 7 6 6 6 6 6 6 7 7 7 6 5 4 4 4 5 5 5 6 6 6 7 8 8 7 7 6 7 12 11 8 7 7 7 6 6 7 8 8 9 9 12 14 15 17 16 14 17 19 19 18 17 16 14 12 12 14 16 20 23 24 24 23 21 18 15 13 12 10 9 8 6 5 3 2 0 1 3 4 6 7 7
9 8 7 7 6 6 5 5 5 6 7 7 6 4 4 4 4 4 5 5 5 6 6 5 5 5 5 4 3 3 2 5 6 6 5 5 6 5 5 6 7 7 8 9 11 13 14 16 16 17 18 21 21 19 19 17 15 13 13 14 15 17 21 24 25 24 23 21 18 15 13 12 11 10 9 7 6 4 3 2 2 3 5 6 7
9 9 9 7 7 6 5 5 6 6 6 6 5 4 4 4 4 5 5 6 6 5 5 5 4 3 3 3 3 3 2 2 3 3 3 3 4 5 6 7 7 8 8 9 11 12 13 15 16 19 20 21 22 21 21 20 17 16 16 14 14 15 18 22 24 24 24 22 18 16 14 13 13 12 11 10 9 8 7 5 4 3 3 5 6
11 11 10 9 8 7 7 6 6 6 6 5 5 4 4 4 5 5 5 5 5 5 5 5 4 3 4 4 4 3 3 3 4 4 3 2 3 4 5 7 7 7 8 10 12 12 12 13 15 18 21 23 23 23 23 21 19 20 19 16 14 15 17 20 21 22 21 19 17 15 13 13 13 13 11 10 10 10 9 9 7 6 4 4 5
13 13 12 11 10 9 8 8 7 6 6 5 5 4 4 4 5 4 4 5 5 5 5 5 5 5 5 6 6 6 6 6 7 7 6 5 5 5 5 7 7 7 7 9 11 13 13 13 13 16 21 24 25 24 24 22 21 22 21 18 16 16 18 18 19 19 17 16 15 15 14 13 13 13 11 10 10 10 10 10 10 9 7 6 5
16 15 14 13 12 11 10 9 7 6 5 5 4 4 4 4 4 3 3 4 4 3 3 3 3 4 4 5 6 7 7 7 7 7 7 6 6 6 6 7 7 7 7 7 9 12 13 12 13 14 17 22 25 25 24 23 22 23 23 22 19 17 18 18 18 17 16 15 15 15 15 15 14 13 12 11 10 10 11 11 11 11 10 9 7
19 18 17 15 13 13 11 9 8 7 5 4 3 2 2 3 2 2 2 2 1 1 1 1 0 1 2 3 5 6 6 7 6 5 4 4 3 3 4 4 4 4 4 4 5 9 11 11 12 12 13 17 21 24 24 24 23 21 20 20 21 23 21 18 18 18 18 17 16 16 15 15 15 14 12 11 11 11 11 11 11 12 12 11 11
21 19 18 17 15 14 12 11 9 7 6 5 3 2 2 1 1 2 3 3 3 3 3 2 1 1 1 2 3 3 4 4 4 3 2 1 1 1 2 3 3 2 2 1 1 4 7 8 9 10 10 12 15 18 21 22 21 17 12 13 18 22 20 16 15 16 18 18 17 17 15 15 15 15 14 13 13 13 12 12 12 13 13 13 13
23 21 20 18 16 15 14 12 10 8 7 6 5 5 4 4 4 4 5 5 4 4 4 4 3 3 3 3 2 1 2 2 2 3 3 3 3 3 4 4 3 3 3 2 2 2 2 3 5 7 8 9 10 12 14 16 17 15 13 12 15 14 13 16 16 13 15 19 19 18 17 16 16 17 16 16 16 16 14 13 13 13 14 14 14
26 24 23 21 18 16 16 13 11 9 8 8 7 7 6 6 7 7 6 6 5 5 6 7 7 6 6 6 5 5 4 4 4 4 4 4 4 5 4 4 4 3 3 3 3 3 2 1 2 3 3 5 6 8 9 10 13 14 14 14 13 10 9 15 18 16 15 17 19 19 17 17 17 18 19 19 19 18 16 15 13 13 13 14 15
28 26 25 23 19 17 16 14 12 11 10 9 9 7 7 8 9 9 8 7 7 7 8 8 8 8 8 8 7 7 7 7 6 5 4 4 4 4 4 3 3 2 2 2 3 4 3 3 2 2 2 2 3 7 8 8 10 12 11 9 9 9 10 13 16 17 17 16 16 16 15 16 17 18 19 19 19 19 18 17 15 14 13 13 14
30 28 26 23 20 18 17 15 14 13 12 11 10 8 8 8 8 9 9 9 8 8 9 8 8 8 8 8 8 8 8 8 8 6 5 4 3 3 2 2 2 1 1 1 2 2 3 3 3 2 3 4 4 6 7 6 6 7 9 9 7 7 8 11 11 12 14 14 15 15 14 14 15 16 17 17 17 17 18 18 17 16 15 14 15
31 29 27 24 21 20 19 16 15 15 13 12 11 9 8 8 7 7 8 9 9 8 8 8 8 8 8 8 8 8 9 9 9 8 7 6 5 4 3 3 2 1 0 1 1 0 1 2 2 3 3 4 5 5 5 5 5 5 7 8 9 8 6 7 8 7 8 9 12 13 13 13 13 15 15 16 17 16 16 17 17 16 16 16 16
32 31 29 26 23 22 20 17 16 16 15 14 13 11 9 9 10 9 9 10 8 7 7 7 7 7 7 7 7 7 8 9 9 9 9 8 8 7 7 6 5 5 4 3 2 2 2 1 0 1 3 4 5 6 6 5 5 5 5 5 6 7 7 7 7 6 5 6 10 12 12 13 13 14 14 15 16 17 17 17 16 16 15 15 15
33 33 31 28 25 23 21 19 18 18 17 15 14 13 11 11 12 12 11 11 10 8 7 6 6 6 6 6 6 7 7 8 8 8 8 8 8 8 8 7 6 6 6 5 4 4 3 3 3 2 1 2 3 4 5 6 7 7 7 7 6 6 7 7 7 7 6 6 9 11 13 14 14 15 15 16 17 18 19 19 18 18 18 17 15
35 34 32 29 27 24 23 21 20 20 19 17 16 15 14 14 15 14 13 12 12 10 9 8 7 6 6 6 6 6 6 7 7 7 7 7 6 6 6 5 5 5 4 4 4 4 4 4 4 5 4 4 4 4 4 5 6 7 7 8 9 9 9 8 8 8 7 7 8 10 12 14 15 17 18 19 19 19 20 20 21 21 21 20 19
38 36 34 32 28 26 25 23 21 21 21 19 18 17 17 17 17 16 15 14 13 12 11 10 8 7 7 6 6 5 5 5 6 6 6 5 5 5 5 4 4 4 4 3 3 3 4 4 5 6 7 7 6 5 5 5 5 6 7 7 8 9 10 9 9 8 7 7 8 9 10 11 14 17 19 19 19 19 20 21 21 22 22 22 22
Wind_Direction
171 172 167 169 167 165 166 165 168 168 164 158 155 153 151 146 139 133 129 128 127 129 135 144 153 161 165 168 166 164 162 156 154 151 147 145 141 137 135 134 134 133 133 132 130 132 133 138 139 141 142 141 142 129 120 121 119 118 123 125 126 127 128 132 130 128 125 124 124 124 122 118 115 113 109 105 100 95 92 88 82 78 73 67 62
167 169 167 169 167 165 166 166 168 167 162 158 156 155 151 145 138 135 131 127 124 125 130 138 147 155 159 162 163 162 158 154 153 149 143 139 135 134 133 132 133 133 135 137 137 141 143 147 149 153 149 148 152 139 131 133 129 128 133 130 128 128 127 131 131 129 127 127 128 126 123 120 118 115 112 107 102 96 90 85 80 76 72 66 60
164 164 165 168 168 167 166 165 167 166 161 158 158 155 150 145 140 138 134 128 124 123 126 132 140 146 151 154 157 157 154 150 147 144 139 137 135 134 135 134 137 140 145 148 149 155 163 169 169 169 159 158 159 149 143 141 139 139 143 137 131 129 130 133 133 132 131 131 130 127 125 123 121 119 116 111 106 99 91 82 76 72 68 62 56
165 161 163 167 167 168 165 164 167 164 161 160 158 154 150 144 141 141 137 131 125 123 124 127 133 138 143 147 151 153 152 147 143 140 138 137 137 137 139 139 141 145 151 156 160 166 178 191 190 183 172 169 166 160 153 148 147 146 152 144 134 133 135 137 137 136 136 133 131 129 127 126 125 122 119 115 109 101 93 82 74 67 63 57 51
166 162 163 166 167 169 165 165 168 163 161 161 158 155 149 144 142 140 137 134 129 124 123 124 127 132 136 143 149 152 151 147 145 144 144 144 142 141 140 137 137 139 142 147 155 166 181 197 199 190 179 173 169 167 161 155 151 151 160 148 138 136 135 137 139 140 138 134 133 131 129 129 128 126 122 118 112 104 94 82 72 64 58 53 47
167 163 163 167 167 167 167 170 170 164 162 161 159 155 150 145 142 138 136 133 129 125 123 123 125 130 133 140 147 152 154 153 154 154 153 149 147 145 139 133 131 130 128 131 140 154 177 192 197 187 173 169 169 170 165 160 153 153 161 150 142 140 136 137 139 139 138 136 134 133 132 131 130 128 125 121 114 105 94 80 71 61 53 46 41
168 164 161 166 166 167 171 173 170 165 164 163 161 157 151 147 143 139 136 133 128 125 124 125 127 132 136 142 148 153 157 159 160 157 152 146 145 143 138 132 130 130 126 126 133 142 163 184 191 181 164 162 167 168 164 161 155 154 160 154 148 145 141 139 138 139 141 139 136 136 135 134 134 131 128 123 117 109 95 79 69 61 51 40 36
167 166 165 166 169 174 175 174 171 166 166 165 163 159 155 149 145 141 137 134 128 126 126 129 134 139 143 147 153 156 158 162 162 156 149 143 139 134 130 129 130 132 127 128 133 137 147 169 185 176 162 161 164 166 163 160 155 154 159 157 152 147 144 142 140 141 143 143 139 138 138 137 136 135 133 127 120 112 98 82 67 58 50 40 34
166 168 170 166 170 176 174 174 171 168 168 168 167 162 159 153 148 144 140 137 132 129 129 132 138 145 152 156 160 161 162 165 161 155 150 144 137 130 127 127 132 133 129 132 132 132 141 153 176 176 166 161 162 162 161 159 153 151 154 154 150 146 145 145 143 143 146 146 143 141 141 140 139 139 138 135 128 117 104 87 73 56 47 42 35
165 167 169 166 168 173 174 175 172 171 170 169 170 166 163 158 153 150 145 142 138 135 134 135 139 146 155 162 167 168 167 166 160 157 156 153 147 144 138 131 131 132 129 133 131 132 144 151 165 179 174 165 162 162 160 157 151 146 147 147 145 144 145 146 145 145 149 149 147 145 144 144 143 143 142 141 137 129 119 103 87 65 45 40 37
165 165 165 166 166 170 174 175 171 173 173 170 173 171 167 164 160 156 153 149 146 143 141 141 142 146 152 160 167 171 170 167 165 165 165 163 157 152 147 137 133 129 125 129 130 137 150 155 161 177 182 173 166 163 161 156 151 145 143 143 141 141 143 146 147 149 151 152 152 149 147 148 149 147 144 144 144 141 138 130 115 89 51 37 35
164 162 161 164 166 169 172 174 172 174 176 174 175 176 174 171 167 163 160 158 156 154 151 149 148 150 152 156 163 169 172 172 172 174 174 167 160 155 149 143 138 132 129 131 132 145 158 157 157 164 184 184 174 165 163 160 154 148 144 143 141 140 141 144 149 152 154 154 154 152 151 153 154 151 148 148 150 151 151 151 143 124 85 40 37
162 160 160 161 165 167 170 173 175 176 179 179 178 181 180 178 175 171 169 166 166 165 161 159 156 156 155 157 163 168 171 175 177 179 177 167 162 159 153 148 143 142 142 140 141 156 169 163 155 156 177 189 182 172 169 168 160 151 145 143 144 141 139 142 148 153 156 156 156 157 157 158 159 156 153 153 155 157 158 160 156 150 142 78 41
164 160 159 158 162 163 166 172 175 178 182 183 182 183 184 184 182 180 178 176 175 173 171 169 167 165 162 165 172 176 176 177 179 181 180 174 171 167 160 158 157 157 155 151 155 164 175 173 163 161 173 186 185 179 177 176 167 155 147 146 147 145 141 139 143 151 156 159 160 160 161 163 164 161 160 159 161 163 165 166 163 163 163 131 56
169 163 158 158 161 161 164 169 174 179 183 184 184 186 187 188 188 187 186 184 183 180 179 176 175 176 176 179 184 187 189 189 191 192 192 189 184 174 167 166 165 164 168 167 170 176 181 187 184 175 179 186 188 187 186 184 174 161 154 151 151 148 143 137 135 142 150 159 163 164 165 167 168 168 167 166 168 168 170 173 167 169 175 164 79
173 167 162 161 161 161 162 166 174 180 185 185 185 188 189 192 193 193 193 192 191 189 187 184 182 186 189 191 197 199 198 197 201 208 208 201 193 185 176 171 166 165 176 188 183 185 192 200 206 199 191 194 200 200 200 196 183 170 161 157 152 149 145 137 129 131 139 153 163 166 170 172 172 174 176 174 175 174 175 177 175 177 184 186 107
177 173 167 164 162 162 162 165 175 180 184 185 187 189 189 194 197 196 198 198 198 197 195 194 193 194 197 200 207 211 208 203 203 213 216 208 201 198 188 177 173 168 174 190 195 192 199 210 217 218 210 203 205 208 210 208 195 180 168 164 156 148 146 139 130 127 130 140 153 164 173 178 177 178 183 183 182 181 182 184 183 186 191 196 108
181 179 173 169 164 166 166 164 174 181 184 185 188 188 186 191 195 196 199 202 202 203 202 202 202 202 205 209 214 216 215 215 215 215 214 208 204 203 194 186 183 174 173 184 201 206 208 216 221 222 221 215 210 210 215 217 208 191 178 172 162 152 148 142 134 129 128 130 135 149 167 179 180 178 182 186 190 191 195 201 203 209 211 219 85
185 183 178 175 171 173 172 167 172 181 186 186 184 183 182 184 188 192 197 202 203 205 207 207 209 210 211 213 216 216 214 220 222 213 207 203 200 202 195 191 193 184 182 182 195 216 216 219 222 223 224 223 217 213 216 220 217 208 194 181 169 160 153 146 139 134 130 128 129 133 149 166 174 174 174 179 181 181 191 214 235 242 246 270 63
187 186 183 180 177 177 178 173 173 179 186 185 181 180 183 184 184 188 195 201 203 205 208 211 214 215 215 217 223 221 220 223 222 215 211 206 196 197 198 200 204 194 188 185 188 211 222 220 221 223 224 226 225 219 218 221 223 222 214 195 176 167 161 152 144 138 132 128 128 129 137 150 156 160 164 166 163 166 177 194 229 247 259 299 58
188 188 186 184 180 178 181 178 176 176 182 184 183 184 187 189 188 190 194 200 204 206 210 214 217 219 220 223 231 233 232 230 224 220 223 219 205 197 204 213 214 201 189 187 186 201 226 226 222 223 224 226 227 225 222 222 225 229 227 214 193 174 172 165 152 143 134 127 126 127 133 141 142 144 152 159 157 164 175 183 212 242 264 290 48
187 188 187 187 183 179 180 179 177 175 178 181 181 185 189 192 195 196 197 201 206 211 215 220 223 226 228 229 235 237 236 233 229 224 224 223 214 202 206 216 215 204 190 190 191 193 219 234 227 226 225 224 224 226 226 224 224 230 233 225 215 195 182 176 160 148 138 127 123 123 130 135 134 136 142 152 157 164 177 183 193 221 262 288 360
184 189 188 187 186 183 182 181 179 179 180 180 178 183 193 197 198 201 202 206 210 213 218 225 229 232 234 236 237 235 233 232 231 224 219 218 213 202 208 218 211 205 195 195 197 190 207 230 231 228 229 228 223 223 225 224 223 228 232 230 230 218 197 188 173 156 145 133 125 124 125 131 132 133 134 144 155 163 178 189 195 211 253 285 301
187 188 187 188 187 187 187 184 182 184 185 187 190 190 195 201 201 203 206 211 214 213 216 224 229 233 236 239 238 235 233 234 236 229 222 217 211 208 218 225 216 213 209 203 206 198 199 217 230 230 231 234 227 220 222 222 221 226 229 230 235 232 218 203 189 167 154 141 131 125 119 123 129 131 129 138 157 166 179 193 202 214 234 264 280
186 184 186 188 189 190 191 190 188 189 195 203 206 203 202 206 208 208 212 216 216 215 218 223 228 234 237 240 239 236 233 235 240 239 234 226 218 219 225 230 224 223 221 211 214 212 203 211 225 228 227 233 231 221 218 219 219 224 226 228 236 238 233 214 199 179 164 153 139 129 119 119 125 127 124 133 156 170 181 195 207 217 228 243 261
180 180 184 187 190 193 195 196 198 201 207 215 215 212 211 213 217 218 223 224 222 221 224 229 234 238 240 243 245 241 236 236 240 240 237 230 225 226 230 232 227 224 224 219 222 219 210 213 225 228 223 228 232 223 217 217 217 222 226 227 233 238 235 220 208 192 175 162 151 140 126 120 124 128 123 129 151 168 181 193 207 218 229 239 252
173 177 182 188 192 197 201 204 208 213 218 225 226 225 223 225 227 227 231 229 229 232 232 232 235 240 242 245 249 247 242 242 246 242 238 235 231 231 232 233 232 231 230 229 230 226 220 219 227 231 221 222 228 223 218 217 216 220 226 227 229 233 230 221 216 207 191 172 161 152 136 123 120 128 124 126 140 163 179 189 207 220 232 244 251
171 177 181 189 195 200 206 211 216 221 226 234 239 238 233 235 239 240 241 241 239 242 242 233 230 237 241 245 247 246 245 246 250 246 240 238 235 234 234 231 234 238 235 235 233 229 230 229 232 232 219 217 219 219 217 217 217 217 224 226 225 228 225 217 217 217 206 188 173 158 141 127 111 109 108 107 114 133 152 169 220 254 254 256 258
170 174 178 185 194 200 207 214 220 224 227 234 242 245 242 243 248 249 251 254 250 245 244 234 230 236 238 242 244 243 245 247 249 245 239 238 237 237 240 238 239 243 238 235 235 233 234 236 241 237 222 217 214 214 215 217 218 217 221 224 222 224 222 216 216 217 209 196 185 168 151 136 117 90 77 67 62 67 56 50 15 345 341 330 311
168 167 169 174 184 195 203 210 214 220 225 228 236 243 248 250 254 258 258 260 256 247 243 236 239 240 234 237 241 240 239 238 236 235 238 240 243 246 250 249 243 244 241 236 236 234 235 240 248 244 226 218 213 212 214 217 219 219 221 223 222 222 222 219 214 211 207 202 202 197 184 169 154 135 80 60 39 42 46 41 26 10 5 2 358
169 165 165 169 181 192 200 207 212 220 226 230 235 240 245 248 252 258 260 262 262 258 251 247 250 247 242 240 237 237 234 229 227 230 239 243 248 252 252 247 237 241 243 240 236 232 231 234 242 244 223 213 211 209 211 213 215 217 219 222 223 221 223 223 216 210 211 215 221 231 232 218 199 194 207 162 61 36 37 33 23 15 8 11 13
171 169 171 175 186 197 204 213 219 226 233 237 241 243 245 246 248 252 258 263 264 263 258 256 257 255 254 249 239 238 235 229 227 227 235 241 246 249 248 243 238 240 240 237 233 231 230 226 231 237 217 208 207 205 205 206 207 212 216 219 221 222 224 226 224 218 218 223 232 242 240 228 211 198 199 195 121 66 48 34 28 19 11 15 17
174 175 182 187 194 206 213 220 226 232 238 241 244 248 248 245 244 246 253 261 264 265 262 259 260 257 255 247 238 239 238 236 235 229 229 240 248 247 247 246 240 239 239 233 228 230 231 226 226 227 212 205 204 203 204 202 199 204 212 217 218 220 225 229 230 228 226 229 238 241 229 221 211 200 198 202 163 92 70 48 37 28 24 22 19
182 182 190 198 206 216 221 227 234 238 243 249 255 256 252 246 239 238 245 253 262 270 272 267 263 262 262 255 248 247 241 236 239 241 235 238 247 248 250 249 240 233 233 230 226 230 232 230 230 222 208 204 203 205 208 208 204 203 210 217 218 218 222 230 234 234 234 236 241 235 221 218 214 208 206 210 209 129 84 63 45 33 28 25 23
192 197 203 209 219 228 230 236 245 252 257 261 263 259 249 241 238 238 243 252 262 272 280 275 268 271 280 285 283 280 249 232 234 246 241 230 236 245 248 249 246 233 223 220 224 230 233 233 229 218 207 203 204 208 211 214 214 212 216 220 222 220 220 227 234 235 236 239 240 230 220 219 221 219 217 219 228 238 260 47 41 31 26 22 22
199 208 217 221 224 226 229 242 254 265 271 270 264 250 235 231 235 240 243 252 260 268 277 277 275 281 292 304 323 4 349 247 244 253 253 246 243 245 251 253 254 247 230 222 225 229 235 237 227 215 208 206 209 210 212 218 221 222 228 229 227 226 223 225 231 235 238 240 237 228 222 224 226 228 228 230 236 243 255 279 343 16 19 15 18
206 213 224 230 226 223 228 240 251 263 269 269 260 239 231 234 240 248 249 252 253 259 270 277 284 294 300 315 339 3 11 335 291 276 270 260 250 250 255 256 257 256 244 233 231 229 232 236 229 220 214 212 215 214 215 222 225 224 231 237 233 230 228 227 231 236 238 240 234 227 228 229 230 234 237 240 244 248 254 262 278 309 346 356 4
214 217 225 232 230 228 230 236 247 257 258 256 249 241 240 243 252 258 257 253 251 253 259 270 282 290 294 303 315 312 302 299 291 287 285 257 254 257 249 249 253 251 246 243 240 231 225 227 230 227 221 219 220 218 219 226 231 229 232 242 240 233 231 230 232 235 237 237 233 229 232 233 233 239 243 245 248 251 254 257 265 274 289 316 333
219 221 225 228 230 230 229 233 241 247 250 246 241 243 245 250 256 260 258 250 249 253 256 265 272 277 284 286 289 288 284 279 272 268 268 262 259 256 245 242 245 246 250 253 244 229 222 224 229 229 226 224 223 220 222 228 232 233 236 244 245 237 232 230 230 230 230 232 233 233 236 236 236 241 245 246 246 246 246 247 254 261 270 282 295
221 224 227 228 228 227 224 224 229 233 239 241 244 254 259 258 251 242 249 251 251 257 258 266 274 279 286 287 288 287 286 285 280 273 271 269 261 250 242 240 246 250 254 261 246 227 222 227 234 233 228 227 226 224 225 230 234 238 239 241 245 242 233 229 228 228 226 228 234 238 240 241 243 246 248 246 244 245 244 242 247 254 259 265 271
222 225 228 229 229 226 223 220 220 220 221 229 247 268 272 269 260 230 220 228 227 180 119 101 360 327 316 304 301 297 297 300 300 298 291 286 272 241 226 224 237 247 249 263 247 224 222 231 238 235 227 226 228 227 228 233 239 243 243 244 247 241 231 227 230 231 231 231 234 239 241 242 243 244 244 242 243 247 249 247 246 250 254 258 262
224 227 228 229 229 226 223 220 216 212 207 209 208 198 201 204 188 153 150 147 133 120 105 92 80 47 18 333 315 308 306 313 324 345 354 345 16 113 157 171 190 202 204 209 171 197 218 234 237 231 225 223 225 226 229 233 236 237 241 258 261 243 223 220 230 232 233 235 236 237 238 236 236 238 238 239 244 250 254 253 251 251 253 255 258
225 228 230 230 228 225 223 218 211 206 200 198 188 181 187 171 147 139 139 136 125 115 108 104 104 102 94 87 65 25 360 2 22 42 55 61 70 90 121 136 145 140 130 143 136 143 191 223 227 223 223 224 226 229 233 234 232 227 219 233 258 254 227 223 229 228 229 235 239 240 239 235 233 236 239 244 249 254 256 255 252 251 251 252 254
224 226 229 228 226 224 224 216 203 199 196 196 190 183 187 176 158 152 149 138 128 120 116 116 114 110 100 92 87 80 76 71 66 69 72 75 81 92 110 127 138 135 123 133 135 134 157 168 182 190 204 219 224 224 224 227 229 228 219 215 226 238 233 230 231 228 229 236 240 242 243 240 238 239 243 248 250 253 254 252 251 250 249 248 249
223 225 227 228 225 223 225 218 203 197 193 194 195 192 192 183 170 166 162 149 138 131 123 120 116 110 102 94 89 86 85 85 83 83 84 87 91 96 106 118 133 135 121 126 133 140 148 150 159 150 135 160 201 207 202 205 216 219 221 215 205 209 220 228 231 229 232 240 242 241 243 242 241 242 244 248 251 252 252 251 252 252 250 249 248
223 225 226 227 225 224 226 220 206 197 192 194 198 198 199 192 179 173 167 154 144 139 130 125 121 112 106 98 91 88 88 89 89 90 92 95 99 104 112 124 138 140 100 93 115 139 155 163 173 163 145 151 177 203 202 200 210 210 213 216 212 210 214 218 223 223 227 236 237 238 242 243 243 243 244 247 251 254 254 254 254 254 254 254 255
222 224 225 225 222 222 224 220 210 200 193 193 197 198 201 193 176 169 164 154 152 149 140 132 125 117 110 103 97 93 91 92 93 93 92 91 95 96 96 106 121 120 26 17 54 124 172 188 200 199 195 187 186 206 215 209 214 214 211 218 224 226 226 223 225 225 228 231 232 235 241 244 246 245 244 246 249 252 256 258 259 260 261 262 262
222 224 223 222 220 218 221 220 212 204 196 194 197 196 198 186 168 163 162 163 168 166 157 147 135 126 116 108 104 100 96 97 97 97 95 91 91 91 88 88 89 85 77 70 70 66 64 67 136 213 223 224 216 224 231 226 226 228 225 224 222 223 231 235 233 235 237 232 230 235 237 240 245 246 247 250 250 252 256 259 261 265 268 268 266
222 225 223 222 220 217 218 218 213 208 200 196 197 195 194 186 176 170 166 172 183 187 183 174 159 144 131 120 114 110 106 105 104 103 101 97 95 93 90 89 89 87 84 77 70 57 43 30 17 2 327 288 263 253 248 242 242 243 242 244 242 239 240 242 242 241 241 239 239 245 246 246 249 249 249 251 251 252 254 256 259 263 266 267 267
224 226 224 222 220 217 217 217 214 211 205 199 198 195 194 191 188 183 177 181 193 198 197 196 189 171 154 142 133 127 122 117 116 114 111 108 105 102 99 99 99 95 88 76 63 49 34 25 20 17 10 354 331 307 288 274 262 256 253 250 250 252 253 256 257 252 250 251 253 261 263 258 255 253 251 251 251 250 250 252 257 262 265 266 267
225 227 225 223 221 219 219 217 215 214 209 204 200 197 197 197 196 193 188 190 199 205 205 205 206 197 179 166 157 152 145 137 136 133 128 125 120 115 112 111 109 106 99 87 71 60 51 40 33 28 22 15 5 352 332 314 298 283 274 267 260 258 258 258 261 261 263 265 267 272 276 272 264 261 259 257 255 255 255 255 256 260 264 266 269
Height
1517 1519 1520 1521 1522 1523 1525 1526 1527 1528 1529 1530 1531 1532 1533 1533 1534 1534 1535 1536 1536 1537 1538 1539 1540 1540 1541 1542 1542 1543 1544 1545 1545 1546 1547 1547 1548 1549 1549 1550 1551 1551 1552 1553 1553 1554 1554 1555 1555 1556 1556 1556 1556 1556 1556 1556 1556 1556 1556 1555 1555 1556 1556 1557 1558 1558 1559 1559 1560 1560 1561 1561 1562 1562 1562 1562 1562 1561 1561 1560 1560 1560 1559 1559 1559
1515 1518 1520 1521 1522 1523 1525 1526 1528 1529 1530 1531 1532 1532 1533 1534 1534 1535 1535 1536 1537 1538 1538 1539 1540 1541 1542 1542 1543 1543 1544 1545 1546 1547 1547 1548 1549 1550 1550 1551 1551 1552 1552 1553 1554 1554 1555 1555 1556 1556 1556 1556 1556 1557 1556 1557 1557 1556 1556 1556 1556 1557 1557 1558 1559 1560 1560 1560 1561 1561 1562 1562 1563 1563 1563 1563 1563 1562 1562 1562 1561 1561 1561 1560 1560
1516 1518 1520 1521 1522 1524 1525 1526 1528 1529 1530 1531 1532 1533 1533 1534 1535 1535 1536 1537 1537 1538 1539 1540 1540 1541 1542 1542 1543 1544 1545 1546 1547 1548 1548 1549 1550 1550 1551 1551 1552 1552 1553 1553 1554 1554 1555 1555 1556 1556 1557 1557 1557 1557 1557 1557 1557 1557 1557 1557 1557 1557 1558 1559 1560 1560 1561 1561 1562 1562 1563 1563 1564 1564 1564 1564 1564 1564 1563 1563 1563 1562 1562 1562 1561
1517 1518 1520 1522 1523 1524 1525 1527 1528 1530 1531 1531 1533 1533 1534 1534 1535 1536 1536 1537 1538 1539 1539 1540 1541 1541 1542 1543 1544 1545 1546 1547 1548 1548 1549 1550 1550 1550 1551 1551 1552 1552 1553 1553 1554 1554 1555 1555 1555 1556 1557 1557 1557 1557 1557 1557 1557 1557 1557 1557 1557 1558 1558 1559 1560 1561 1561 1562 1563 1563 1564 1564 1564 1565 1565 1565 1565 1565 1565 1564 1564 1564 1563 1563 1563
1517 1519 1521 1522 1523 1525 1526 1528 1529 1530 1531 1532 1533 1534 1534 1535 1536 1536 1537 1538 1538 1539 1540 1540 1541 1542 1543 1544 1545 1546 1547 1547 1548 1548 1549 1549 1550 1550 1551 1551 1552 1552 1553 1553 1553 1554 1554 1555 1555 1555 1556 1557 1557 1557 1557 1557 1557 1558 1558 1558 1558 1558 1559 1560 1561 1561 1562 1562 1563 1564 1564 1565 1565 1565 1566 1566 1566 1566 1566 1565 1565 1565 1564 1564 1564
1518 1519 1521 1522 1524 1525 1527 1528 1530 1531 1531 1532 1533 1534 1535 1536 1536 1537 1538 1538 1539 1539 1540 1541 1541 1542 1543 1544 1545 1546 1547 1548 1548 1549 1549 1550 1550 1551 1551 1551 1552 1552 1553 1553 1553 1554 1554 1554 1555 1555 1556 1556 1557 1557 1557 1557 1558 1558 1558 1558 1558 1559 1559 1560 1561 1562 1563 1563 1564 1564 1565 1565 1566 1566 1567 1567 1567 1567 1567 1566 1566 1566 1565 1565 1565
1518 1520 1522 1523 1525 1526 1527 1528 1530 1531 1532 1533 1534 1535 1535 1536 1537 1537 1538 1539 1540 1540 1541 1541 1542 1543 1544 1545 1546 1547 1548 1548 1549 1550 1550 1551 1551 1551 1552 1552 1552 1552 1553 1553 1553 1554 1554 1554 1554 1555 1556 1556 1557 1557 1557 1558 1558 1558 1559 1559 1559 1559 1560 1561 1561 1562 1563 1564 1564 1565 1565 1566 1566 1567 1567 1568 1568 1568 1567 1567 1567 1567 1566 1566 1565
1519 1521 1522 1524 1525 1526 1527 1529 1530 1531 1533 1534 1534 1535 1536 1537 1537 1538 1539 1540 1540 1541 1541 1542 1543 1544 1545 1546 1547 1548 1548 1549 1550 1551 1551 1551 1552 1552 1552 1552 1553 1553 1553 1554 1554 1553 1554 1554 1554 1555 1556 1556 1557 1557 1557 1558 1558 1558 1559 1559 1559 1559 1560 1561 1562 1563 1564 1564 1565 1565 1566 1566 1566 1567 1568 1568 1569 1569 1568 1568 1568 1567 1567 1567 1566
1519 1521 1522 1524 1526 1527 1528 1529 1530 1532 1533 1534 1535 1536 1536 1537 1538 1539 1539 1540 1541 1542 1542 1543 1544 1545 1546 1547 1547 1548 1549 1550 1550 1551 1551 1552 1552 1553 1553 1553 1553 1553 1554 1554 1554 1554 1554 1554 1554 1555 1555 1556 1557 1557 1558 1558 1558 1559 1559 1559 1560 1560 1560 1561 1562 1563 1564 1564 1565 1565 1566 1566 1567 1567 1568 1568 1569 1569 1569 1569 1568 1568 1567 1567 1567
1519 1521 1523 1524 1526 1527 1528 1529 1530 1532 1534 1535 1536 1536 1537 1538 1538 1539 1540 1541 1542 1542 1543 1544 1545 1545 1546 1547 1548 1549 1549 1550 1551 1551 1552 1552 1553 1553 1553 1553 1554 1554 1554 1554 1554 1554 1554 1554 1555 1555 1556 1556 1557 1557 1558 1558 1559 1559 1560 1560 1560 1560 1561 1562 1562 1563 1564 1564 1565 1566 1566 1566 1567 1567 1568 1568 1569 1569 1570 1569 1569 1569 1568 1568 1567
1520 1522 1523 1525 1526 1527 1528 1530 1531 1532 1534 1535 1536 1537 1537 1538 1539 1540 1541 1542 1542 1543 1544 1545 1545 1546 1547 1547 1548 1549 1549 1550 1551 1551 1552 1552 1553 1553 1553 1553 1554 1554 1555 1555 1555 1555 1555 1555 1555 1556 1556 1557 1557 1558 1558 1559 1559 1560 1560 1561 1561 1561 1562 1562 1562 1563 1564 1564 1565 1566 1566 1567 1567 1567 1568 1568 1569 1569 1570 1570 1569 1569 1569 1568 1568
1521 1522 1523 1525 1526 1527 1529 1530 1531 1532 1534 1535 1536 1537 1538 1539 1539 1540 1541 1542 1543 1544 1544 1545 1546 1547 1547 1548 1548 1549 1549 1550 1551 1551 1552 1552 1553 1553 1553 1553 1554 1554 1555 1555 1555 1556 1555 1555 1556 1556 1557 1557 1558 1558 1559 1560 1560 1560 1561 1561 1562 1562 1562 1563 1563 1563 1564 1564 1565 1566 1566 1567 1567 1567 1568 1568 1568 1569 1569 1569 1569 1569 1569 1569 1569
1521 1522 1524 1525 1526 1528 1529 1530 1532 1533 1534 1535 1536 1537 1538 1539 1540 1541 1541 1542 1543 1544 1545 1546 1546 1547 1548 1548 1549 1549 1550 1550 1551 1551 1552 1552 1553 1553 1554 1554 1554 1554 1555 1555 1556 1556 1556 1556 1556 1557 1557 1558 1559 1559 1560 1560 1560 1561 1561 1562 1562 1563 1563 1563 1564 1564 1564 1564 1565 1565 1566 1567 1567 1567 1568 1568 1568 1569 1569 1569 1569 1569 1569 1569 1569
1521 1522 1524 1525 1527 1528 1529 1531 1532 1533 1534 1535 1536 1537 1538 1539 1540 1541 1542 1543 1543 1544 1545 1546 1547 1547 1548 1549 1549 1549 1550 1550 1551 1551 1552 1552 1553 1554 1554 1554 1555 1555 1555 1556 1556 1557 1557 1557 1557 1557 1558 1559 1559 1560 1560 1561 1561 1561 1562 1562 1563 1563 1563 1564 1565 1565 1565 1565 1565 1566 1566 1567 1567 1567 1568 1568 1568 1568 1569 1569 1569 1569 1569 1569 1569
1522 1523 1524 1525 1527 1528 1530 1531 1532 1533 1534 1535 1536 1537 1538 1539 1540 1541 1542 1543 1544 1544 1545 1546 1547 1547 1548 1549 1549 1550 1550 1551 1551 1552 1552 1552 1553 1554 1554 1555 1555 1555 1555 1556 1556 1557 1557 1557 1557 1558 1558 1559 1560 1561 1562 1562 1562 1562 1562 1563 1563 1564 1564 1565 1565 1566 1566 1566 1566 1566 1566 1566 1567 1568 1568 1568 1568 1568 1568 1569 1569 1569 1569 1569 1569
1523 1523 1524 1525 1527 1529 1530 1531 1532 1533 1534 1535 1536 1537 1538 1539 1540 1541 1542 1543 1544 1545 1545 1546 1547 1547 1548 1549 1549 1550 1550 1551 1551 1551 1552 1553 1553 1554 1555 1556 1556 1556 1556 1556 1556 1557 1557 1558 1558 1559 1559 1560 1560 1561 1562 1563 1563 1563 1563 1563 1564 1565 1565 1565 1566 1567 1567 1567 1567 1567 1567 1567 1567 1568 1568 1568 1568 1568 1568 1569 1569 1569 1569 1569 1570
1523 1524 1525 1526 1527 1529 1530 1532 1532 1533 1534 1535 1536 1537 1539 1540 1540 1541 1542 1543 1544 1545 1545 1546 1547 1547 1548 1548 1549 1550 1550 1551 1551 1551 1552 1553 1553 1554 1555 1555 1556 1557 1557 1557 1557 1557 1558 1558 1559 1559 1560 1560 1561 1561 1562 1563 1564 1564 1564 1564 1564 1565 1566 1566 1566 1567 1567 1568 1568 1568 1568 1568 1568 1568 1569 1569 1569 1569 1569 1569 1569 1569 1570 1570 1570
1523 1524 1526 1526 1528 1529 1530 1532 1533 1533 1534 1535 1536 1537 1539 1540 1540 1541 1542 1543 1544 1545 1545 1546 1547 1547 1548 1548 1549 1549 1550 1550 1551 1551 1552 1552 1553 1554 1555 1555 1556 1557 1557 1557 1557 1558 1558 1559 1559 1560 1560 1560 1561 1561 1562 1563 1564 1565 1565 1565 1565 1565 1566 1566 1567 1567 1567 1568 1568 1568 1568 1568 1568 1569 1569 1569 1570 1570 1570 1570 1570 1570 1570 1570 1571
1523 1524 1526 1527 1528 1529 1530 1532 1533 1533 1534 1535 1536 1537 1538 1539 1540 1541 1542 1543 1544 1545 1545 1546 1547 1547 1548 1548 1549 1549 1550 1550 1550 1550 1551 1552 1553 1554 1555 1555 1556 1557 1558 1558 1558 1558 1558 1559 1559 1560 1560 1561 1561 1562 1562 1563 1564 1565 1565 1565 1566 1566 1566 1567 1567 1567 1567 1568 1568 1568 1569 1569 1569 1569 1569 1569 1570 1570 1571 1571 1571 1571 1571 1571 1571
1523 1524 1526 1527 1528 1529 1530 1532 1533 1534 1534 1535 1536 1537 1538 1539 1540 1541 1542 1543 1544 1545 1545 1546 1546 1547 1547 1548 1548 1549 1549 1550 1550 1550 1551 1552 1553 1553 1554 1555 1556 1557 1558 1558 1559 1558 1558 1559 1559 1559 1560 1560 1561 1562 1562 1563 1564 1565 1566 1566 1566 1567 1567 1567 1567 1568 1568 1568 1568 1568 1568 1569 1569 1569 1569 1570 1570 1570 1571 1571 1571 1571 1571 1571 1572
1522 1524 1526 1527 1528 1529 1530 1531 1533 1534 1535 1535 1536 1537 1538 1539 1540 1541 1542 1543 1543 1544 1545 1545 1546 1546 1547 1547 1548 1549 1549 1549 1550 1551 1551 1552 1553 1553 1554 1555 1556 1557 1558 1558 1559 1559 1558 1559 1559 1559 1559 1560 1561 1562 1562 1563 1564 1564 1566 1566 1567 1567 1567 1568 1568 1568 1568 1568 1568 1568 1568 1569 1569 1569 1570 1570 1570 1570 1571 1571 1571 1571 1571 1572 1572
1522 1523 1525 1527 1528 1529 1530 1532 1532 1534 1535 1535 1536 1537 1538 1539 1540 1541 1542 1542 1543 1544 1544 1545 1545 1546 1546 1547 1548 1548 1549 1549 1550 1551 1552 1553 1553 1553 1555 1556 1556 1557 1557 1558 1559 1559 1558 1558 1559 1559 1559 1559 1560 1561 1562 1562 1563 1564 1565 1566 1567 1567 1568 1568 1568 1568 1568 1568 1568 1568 1568 1569 1569 1569 1570 1570 1570 1571 1571 1571 1571 1571 1572 1572 1572
1522 1523 1525 1526 1528 1529 1530 1532 1532 1533 1534 1535 1536 1537 1538 1539 1540 1541 1542 1542 1543 1543 1544 1544 1545 1545 1546 1546 1547 1548 1549 1549 1550 1551 1552 1553 1554 1554 1555 1555 1556 1556 1557 1558 1558 1559 1558 1558 1558 1558 1558 1559 1559 1561 1562 1562 1563 1564 1565 1566 1567 1567 1568 1568 1568 1568 1568 1568 1568 1568 1568 1569 1569 1570 1570 1570 1571 1571 1571 1571 1571 1572 1572 1572 1572
1521 1522 1524 1526 1527 1529 1530 1531 1532 1533 1534 1535 1536 1537 1538 1538 1539 1540 1541 1541 1542 1542 1543 1543 1544 1545 1545 1546 1546 1547 1548 1549 1550 1550 1552 1553 1554 1554 1554 1555 1555 1556 1557 1557 1557 1558 1558 1557 1557 1557 1558 1558 1559 1560 1561 1562 1562 1563 1564 1566 1567 1567 1568 1568 1568 1568 1568 1568 1568 1568 1568 1569 1569 1570 1570 1570 1571 1571 1571 1572 1572 1572 1572 1572 1572
1520 1522 1524 1526 1527 1528 1530 1531 1532 1533 1534 1534 1535 1536 1537 1537 1538 1539 1539 1540 1541 1541 1542 1543 1543 1544 1544 1545 1546 1546 1547 1548 1549 1550 1551 1552 1553 1553 1554 1554 1555 1555 1556 1556 1556 1557 1557 1557 1557 1556 1557 1558 1558 1559 1560 1561 1562 1562 1564 1565 1566 1567 1567 1568 1568 1568 1568 1568 1568 1568 1568 1569 1569 1569 1570 1570 1570 1571 1571 1571 1572 1572 1571 1571 1572
1521 1522 1523 1525 1527 1528 1529 1530 1532 1532 1533 1534 1534 1535 1536 1537 1537 1538 1539 1539 1540 1540 1541 1541 1542 1543 1543 1544 1545 1546 1547 1548 1549 1549 1550 1551 1552 1552 1552 1553 1553 1554 1554 1555 1555 1556 1556 1556 1556 1555 1556 1556 1557 1558 1559 1560 1561 1562 1563 1564 1566 1566 1567 1568 1568 1568 1568 1568 1568 1568 1569 1569 1569 1569 1570 1570 1570 1570 1571 1571 1571 1571 1571 1571 1571
1521 1522 1523 1525 1526 1527 1528 1530 1531 1532 1532 1533 1534 1534 1535 1536 1536 1537 1538 1538 1539 1539 1540 1540 1541 1542 1542 1543 1544 1545 1547 1547 1548 1548 1549 1549 1550 1550 1550 1551 1553 1553 1554 1554 1555 1555 1555 1555 1554 1554 1555 1555 1556 1557 1558 1559 1561 1561 1562 1563 1565 1566 1567 1567 1568 1568 1568 1568 1568 1568 1569 1569 1569 1569 1570 1570 1570 1570 1570 1571 1571 1571 1571 1571 1571
1521 1522 1523 1524 1526 1527 1528 1529 1530 1531 1532 1532 1533 1534 1535 1535 1535 1536 1536 1537 1538 1538 1539 1539 1540 1540 1542 1542 1543 1545 1546 1547 1547 1547 1547 1547 1547 1548 1549 1551 1552 1552 1553 1553 1554 1554 1554 1554 1554 1553 1554 1554 1555 1556 1557 1558 1560 1561 1561 1562 1564 1565 1566 1567 1568 1568 1568 1568 1568 1568 1569 1569 1569 1569 1570 1570 1570 1570 1570 1570 1570 1570 1571 1571 1571
1521 1522 1523 1524 1525 1527 1528 1529 1530 1530 1531 1532 1532 1533 1534 1534 1535 1535 1535 1536 1537 1537 1538 1538 1539 1540 1541 1542 1542 1544 1545 1545 1546 1546 1545 1544 1545 1547 1549 1550 1551 1551 1551 1552 1553 1553 1553 1553 1553 1553 1553 1553 1553 1555 1556 1557 1558 1560 1561 1562 1563 1564 1565 1566 1567 1568 1568 1568 1568 1568 1568 1569 1569 1569 1569 1570 1570 1570 1570 1570 1570 1570 1570 1570 1570
1521 1522 1524 1525 1525 1526 1527 1528 1529 1530 1531 1532 1532 1533 1533 1533 1534 1534 1535 1535 1536 1536 1537 1537 1538 1539 1539 1540 1541 1542 1543 1544 1545 1545 1544 1545 1546 1547 1548 1549 1550 1549 1550 1551 1552 1552 1553 1553 1553 1552 1552 1552 1552 1554 1555 1556 1557 1559 1560 1561 1562 1564 1565 1566 1566 1567 1568 1568 1568 1568 1568 1569 1569 1569 1569 1569 1569 1569 1570 1570 1570 1570 1570 1570 1570
1521 1523 1524 1525 1525 1526 1527 1528 1529 1529 1530 1531 1532 1532 1533 1533 1533 1533 1534 1534 1535 1535 1536 1536 1537 1538 1538 1539 1540 1541 1542 1543 1543 1544 1544 1545 1546 1546 1546 1547 1547 1548 1549 1550 1551 1552 1552 1552 1553 1552 1551 1551 1552 1553 1554 1555 1556 1558 1559 1560 1561 1562 1564 1565 1566 1566 1567 1568 1568 1568 1568 1568 1568 1569 1569 1569 1569 1569 1569 1569 1569 1569 1569 1570 1569
1521 1523 1524 1524 1525 1526 1527 1527 1528 1529 1530 1530 1531 1531 1532 1532 1532 1532 1533 1533 1534 1534 1535 1535 1536 1537 1537 1538 1538 1539 1541 1542 1542 1544 1544 1543 1544 1544 1545 1545 1546 1547 1547 1548 1550 1550 1551 1551 1552 1552 1552 1552 1552 1553 1554 1555 1556 1557 1558 1559 1560 1562 1563 1564 1565 1566 1567 1567 1568 1568 1568 1568 1568 1568 1568 1568 1568 1568 1568 1569 1569 1569 1569 1569 1569
1521 1522 1523 1524 1525 1526 1526 1527 1528 1528 1529 1529 1530 1530 1530 1531 1531 1531 1532 1532 1533 1533 1534 1534 1535 1535 1535 1536 1537 1538 1540 1541 1541 1542 1543 1542 1542 1543 1543 1544 1545 1546 1546 1546 1547 1548 1549 1550 1551 1552 1552 1552 1552 1553 1553 1554 1555 1556 1557 1558 1559 1560 1562 1563 1564 1565 1566 1567 1567 1568 1568 1568 1568 1568 1568 1568 1568 1568 1568 1568 1568 1568 1568 1568 1569
1521 1522 1523 1524 1525 1525 1526 1526 1527 1527 1528 1528 1529 1529 1529 1530 1530 1531 1531 1531 1532 1532 1533 1533 1533 1534 1534 1535 1535 1536 1539 1539 1539 1541 1542 1541 1541 1541 1542 1542 1543 1544 1544 1544 1545 1546 1547 1548 1549 1550 1551 1552 1552 1553 1553 1554 1555 1555 1556 1557 1558 1559 1560 1561 1563 1564 1565 1566 1566 1567 1567 1567 1567 1568 1568 1568 1568 1568 1568 1568 1568 1568 1568 1568 1568
1520 1522 1523 1524 1524 1525 1525 1526 1526 1526 1527 1527 1528 1528 1529 1529 1530 1530 1530 1531 1531 1531 1532 1532 1532 1532 1533 1534 1533 1535 1537 1537 1537 1539 1540 1540 1540 1540 1540 1541 1542 1542 1542 1543 1543 1544 1545 1546 1546 1547 1549 1550 1551 1552 1553 1553 1554 1555 1556 1556 1557 1558 1559 1560 1561 1562 1563 1564 1565 1566 1566 1567 1567 1567 1567 1567 1567 1567 1567 1567 1567 1567 1568 1568 1567
1520 1521 1522 1523 1524 1524 1525 1525 1525 1526 1526 1526 1527 1527 1528 1529 1529 1530 1530 1530 1531 1531 1531 1531 1532 1532 1533 1533 1533 1534 1536 1536 1537 1537 1538 1538 1538 1538 1539 1540 1540 1540 1541 1542 1542 1543 1544 1545 1546 1547 1548 1549 1549 1550 1551 1552 1553 1554 1555 1556 1556 1557 1557 1558 1559 1560 1561 1562 1564 1564 1565 1566 1566 1566 1566 1567 1567 1567 1567 1567 1567 1567 1567 1567 1567
1520 1521 1522 1523 1523 1524 1524 1525 1525 1525 1525 1526 1526 1527 1528 1528 1529 1529 1529 1530 1530 1530 1531 1531 1531 1532 1532 1533 1533 1534 1534 1535 1536 1536 1536 1536 1537 1537 1538 1538 1538 1539 1540 1541 1541 1542 1543 1543 1544 1545 1546 1547 1548 1549 1550 1551 1552 1553 1554 1555 1555 1556 1556 1557 1557 1558 1559 1561 1562 1563 1564 1564 1565 1565 1565 1566 1566 1566 1566 1566 1566 1566 1567 1567 1567
1520 1521 1522 1523 1523 1524 1524 1524 1524 1525 1525 1525 1526 1526 1527 1528 1528 1529 1529 1529 1530 1530 1530 1530 1531 1531 1532 1532 1532 1533 1533 1534 1535 1535 1535 1535 1535 1536 1536 1537 1537 1538 1538 1539 1540 1540 1541 1541 1542 1543 1544 1546 1547 1548 1549 1549 1550 1551 1552 1554 1554 1555 1555 1555 1556 1556 1557 1559 1561 1562 1562 1563 1564 1564 1564 1564 1565 1565 1565 1565 1565 1566 1566 1566 1566
1519 1520 1521 1522 1523 1523 1523 1524 1524 1524 1525 1525 1525 1526 1527 1527 1528 1528 1528 1529 1529 1529 1530 1530 1530 1531 1531 1531 1531 1532 1532 1532 1533 1533 1533 1534 1534 1535 1535 1535 1536 1536 1536 1536 1537 1538 1539 1539 1540 1541 1542 1544 1545 1546 1547 1548 1549 1550 1551 1552 1552 1553 1553 1554 1554 1555 1556 1557 1559 1560 1561 1561 1562 1562 1563 1563 1563 1564 1564 1564 1564 1564 1565 1565 1566
1519 1520 1521 1521 1522 1522 1523 1524 1524 1524 1525 1525 1525 1526 1526 1527 1527 1528 1528 1528 1529 1529 1529 1530 1530 1530 1530 1530 1530 1530 1530 1531 1531 1531 1532 1532 1532 1533 1533 1534 1534 1534 1534 1535 1535 1536 1537 1538 1539 1539 1540 1542 1543 1544 1546 1547 1548 1548 1549 1550 1550 1551 1552 1552 1553 1554 1555 1556 1557 1558 1559 1560 1560 1561 1561 1561 1562 1562 1562 1562 1563 1563 1563 1564 1564
1518 1519 1520 1520 1521 1522 1523 1523 1524 1524 1525 1525 1525 1526 1526 1526 1527 1528 1528 1528 1529 1529 1529 1529 1530 1530 1530 1530 1529 1529 1529 1529 1529 1530 1530 1530 1531 1531 1532 1532 1533 1533 1533 1534 1534 1535 1536 1537 1537 1538 1539 1540 1541 1543 1544 1545 1546 1547 1547 1548 1548 1549 1550 1551 1552 1553 1554 1555 1555 1556 1557 1558 1558 1559 1559 1560 1560 1560 1561 1561 1561 1561 1562 1562 1563
1516 1517 1519 1520 1521 1522 1522 1523 1523 1524 1525 1525 1526 1526 1526 1526 1527 1528 1528 1528 1528 1529 1529 1529 1529 1530 1529 1529 1529 1528 1528 1528 1528 1528 1529 1529 1529 1530 1530 1531 1532 1532 1533 1533 1534 1534 1535 1536 1536 1537 1538 1539 1540 1541 1542 1543 1544 1544 1545 1546 1546 1545 1547 1549 1550 1551 1552 1553 1553 1554 1555 1555 1556 1556 1557 1557 1558 1558 1559 1559 1559 1560 1560 1560 1561
1515 1516 1517 1518 1520 1521 1521 1522 1523 1524 1525 1525 1526 1526 1526 1527 1527 1528 1528 1528 1529 1529 1529 1529 1529 1529 1529 1529 1529 1528 1528 1528 1528 1528 1528 1529 1529 1529 1530 1531 1531 1532 1533 1533 1534 1534 1534 1535 1535 1536 1537 1537 1538 1539 1540 1541 1542 1542 1543 1543 1543 1544 1545 1547 1547 1548 1549 1550 1551 1552 1552 1553 1553 1554 1554 1555 1555 1556 1556 1557 1557 1557 1558 1558 1559
1512 1514 1515 1517 1518 1520 1520 1521 1522 1523 1524 1525 1525 1526 1526 1527 1527 1528 1528 1528 1529 1529 1530 1530 1530 1530 1530 1530 1529 1529 1528 1528 1528 1528 1529 1529 1529 1530 1530 1531 1531 1532 1533 1533 1533 1534 1534 1534 1535 1536 1536 1537 1537 1538 1538 1539 1540 1541 1541 1541 1541 1542 1544 1545 1546 1546 1547 1548 1549 1549 1550 1551 1551 1551 1552 1552 1553 1553 1554 1554 1555 1555 1555 1556 1556
1510 1511 1513 1515 1517 1519 1519 1520 1521 1522 1523 1524 1525 1525 1526 1527 1528 1528 1528 1529 1529 1530 1530 1530 1530 1530 1530 1530 1530 1529 1529 1529 1529 1529 1529 1530 1530 1530 1531 1531 1531 1532 1532 1533 1533 1534 1534 1534 1534 1535 1536 1536 1537 1537 1537 1537 1539 1540 1540 1540 1540 1541 1542 1543 1544 1545 1546 1546 1546 1547 1547 1548 1549 1549 1549 1550 1550 1551 1551 1552 1552 1553 1553 1553 1553
1507 1509 1511 1513 1516 1517 1519 1519 1520 1521 1522 1524 1525 1525 1526 1527 1528 1528 1529 1529 1530 1530 1531 1531 1531 1531 1531 1531 1531 1530 1530 1530 1530 1530 1530 1530 1531 1531 1531 1531 1532 1532 1532 1533 1533 1534 1534 1534 1534 1535 1536 1537 1537 1538 1537 1537 1538 1539 1540 1540 1540 1539 1540 1541 1542 1543 1544 1544 1544 1544 1545 1546 1546 1547 1547 1547 1548 1548 1549 1549 1550 1550 1551 1551 1551
1504 1507 1509 1512 1514 1516 1517 1518 1520 1521 1522 1523 1524 1525 1526 1527 1528 1528 1529 1530 1530 1530 1531 1531 1532 1532 1532 1531 1531 1531 1531 1531 1531 1531 1531 1531 1531 1531 1531 1532 1532 1532 1532 1533 1533 1534 1534 1534 1535 1535 1536 1537 1537 1538 1538 1538 1538 1539 1539 1539 1538 1539 1540 1541 1541 1541 1542 1542 1542 1542 1543 1544 1544 1544 1545 1545 1545 1546 1546 1547 1547 1548 1548 1548 1549
1502 1505 1507 1510 1512 1514 1516 1517 1519 1520 1521 1522 1523 1524 1525 1526 1527 1528 1529 1530 1530 1530 1531 1531 1532 1532 1532 1532 1532 1532 1532 1532 1532 1532 1532 1532 1532 1532 1532 1532 1533 1533 1533 1533 1533 1534 1534 1534 1535 1535 1536 1536 1537 1537 1537 1537 1538 1538 1538 1538 1538 1538 1539 1540 1540 1540 1540 1540 1540 1540 1541 1542 1542 1542 1543 1543 1543 1544 1544 1544 1545 1545 1546 1546 1546
1500 1502 1505 1508 1510 1513 1514 1516 1517 1519 1520 1521 1522 1523 1525 1526 1527 1527 1528 1529 1530 1530 1530 1531 1532 1532 1532 1532 1532 1532 1532 1532 1532 1532 1533 1533 1533 1533 1533 1533 1533 1533 1534 1534 1534 1534 1534 1534 1534 1535 1535 1535 1535 1536 1536 1536 1537 1537 1537 1537 1537 1538 1538 1539 1539 1539 1539 1539 1539 1539 1539 1540 1540 1540 1541 1541 1541 1541 1541 1542 1542 1543 1543 1544 1544
1498 1500 1504 1507 1509 1511 1513 1514 1516 1517 1519 1520 1521 1522 1524 1525 1526 1527 1527 1528 1529 1529 1530 1531 1531 1532 1532 1532 1532 1532 1533 1533 1533 1533 1533 1533 1533 1534 1534 1534 1534 1534 1534 1534 1534 1534 1534 1534 1534 1534 1534 1534 1534 1534 1534 1535 1535 1535 1536 1536 1536 1537 1537 1538 1538 1538 1538 1538 1538 1538 1538 1539 1538 1538 1539 1539 1539 1539 1539 1539 1540 1540 1541 1541 1541
1496 1498 1501 1504 1507 1509 1510 1512 1514 1516 1517 1518 1520 1521 1522 1524 1525 1526 1527 1527 1528 1529 1529 1530 1531 1531 1532 1532 1532 1532 1533 1533 1533 1534 1534 1534 1534 1534 1534 1534 1534 1535 1535 1535 1535 1535 1535 1534 1534 1534 1534 1534 1534 1534 1534 1534 1534 1534 1534 1535 1535 1535 1536 1536 1536 1536 1537 1537 1537 1537 1537 1537 1537 1537 1537 1536 1537 1537 1536 1537 1538 1538 1538 1538 1539